Home   Weather   Dayton   Past weeks

Flag for USA Past Weather in Dayton, Ohio, USA — Yesterday and Last 2 Weeks

Now
59 °F

Heavy rain. Fog.


Feels Like: 59 °F
Forecast: 62 / 78 °F
Wind: 5 mph from Southwest

Location: Dayton / Wright-Patterson Air Force Base

Current Time: Apr 29, 2017 at 5:20:50 am

Latest Report: Apr 29, 2017 at 4:58 am


Visibility: 3 mi

Pressure: 29.96 "Hg

Humidity: 100%

Dew Point: 59 °F

Location of DaytonLocation

Past Weather in Dayton — Graph

°F

Dayton Temperature Yesterday

Maximum temperature yesterday: 68 °F (at 5:58 pm)
Minimum temperature yesterday: 44 °F (at 4:58 am)
Average temperature yesterday: 57 °F

High & Low Weather Summary for the Past Weeks

 TemperatureHumidityPressure
High83 °F (Apr 26, 4:58 pm)100% (Apr 16, 11:58 pm)30.29 "Hg (Apr 16, 11:58 pm)
Low37 °F (Apr 23, 6:58 am)21% (Apr 17, 2:58 pm)29.54 "Hg (Apr 27, 7:58 am)
Average63 °F67%29.98 "Hg
* Reported Apr 14 2:58 am — Apr 29 2:58 am, Dayton, Weather by CustomWeather, © 2017

Note: Actual official high and low records may vary slightly from our data, if they occured in-between our weather recording intervals... More about our weather records

Advertising

Dayton Weather History for the Previous 24 Hours

Scroll right to see more
 ConditionsComfort  
Time TempWeatherWind HumidityBarometerVisibility
2:58 am
Sat, Apr 29
60 °FLight rain. Mostly cloudy.5 mph100%29.94 "Hg10 mi
2:36 am59 °FThunderstorms. Overcast.3 mph100%29.93 "Hg9 mi
1:58 am59 °FThunderstorms. Low clouds.20 mph100%29.90 "Hg7 mi
1:36 am59 °FStrong thunderstorms. Fog.7 mph100%29.93 "Hg3 mi
1:14 am59 °FThunderstorms. Overcast.10 mph100%29.94 "Hg10 mi
12:58 am58 °FLight rain. Overcast.7 mph100%29.95 "Hg10 mi
12:32 am59 °FLight rain. Overcast.8 mph100%29.96 "Hg10 mi
11:58 pm
Fri, Apr 28
59 °FLight rain. Overcast.9 mph100%29.96 "Hg10 mi
10:58 pm58 °FMostly cloudy.9 mph100%29.95 "Hg10 mi
10:29 pm57 °FThunderstorms. Fog.7 mph100%29.97 "Hg3 mi
9:58 pm59 °FThunderstorms. Overcast.No wind100%29.96 "Hg9 mi
9:42 pm59 °FStrong thunderstorms. Fog.6 mph100%29.97 "Hg6 mi
8:58 pm59 °FThunderstorms. Mostly cloudy.23 mph100%29.98 "Hg7 mi
7:59 pm60 °FStrong thunderstorms. Fog.18 mph98%29.91 "Hg1 mi
7:42 pm61 °FThunderstorms. Fog.20 mph94%29.92 "Hg3 mi
7:01 pm66 °FThunderstorms. Mostly cloudy.9 mph78%29.88 "Hg10 mi
6:41 pm68 °FPartly sunny.5 mph64%29.90 "Hg10 mi
5:58 pm68 °FLight rain. Broken clouds.6 mph61%29.94 "Hg10 mi
4:58 pm68 °FBroken clouds.6 mph55%29.95 "Hg10 mi
3:58 pm67 °FPartly sunny.No wind55%29.99 "Hg10 mi
2:58 pm65 °FScattered clouds.6 mph58%29.99 "Hg10 mi
1:58 pm62 °FPartly sunny.3 mph64%30.02 "Hg10 mi
12:58 pm60 °FPartly sunny.7 mph68%30.02 "Hg10 mi
11:58 am58 °FScattered clouds.6 mph71%30.03 "Hg10 mi
10:58 am56 °FOvercast.8 mph73%30.03 "Hg10 mi
9:58 am54 °FScattered clouds.7 mph77%30.03 "Hg10 mi
8:58 am52 °FScattered clouds.5 mph81%30.06 "Hg10 mi
7:58 am49 °FOvercast.6 mph90%30.03 "Hg10 mi
6:58 am45 °FScattered clouds.5 mph96%30.01 "Hg10 mi
5:58 am46 °FPassing clouds.3 mph93%29.99 "Hg10 mi
Weather by CustomWeather, © 2017

See weather overviewHow to use our weather pages